Location: Rounton
(54.4000°N, 1.3500°W)
Time: 20:15:41
(UTC+01:00)

YAOGAN 20A - Pass Details

Date: 03 July 2022
Orbit: 891 x 1288 km, 63.4° (Epoch: 18 August)

Event Time Altitude Azimuth Distance (km) Brightness Sun altitude
Rises 00:58:12 0° 310° (NW) 3,811 8.7 -12.6°
Reaches altitude 10° 01:00:44 10° 310° (NW) 2,909 8.0 -12.6°
Maximum altitude 01:07:41 77° 226° (SW) 1,184 5.2 -12.6°
Drops below altitude 10° 01:15:19 10° 142° (SE) 3,177 7.1 -12.6°
Enters shadow 01:16:28 - 142° (SE) 3,580 7.4 -12.6°
